User: anonymous   Login
Location: Caltech
(34.1382°N, 118.1253°W)
Time: 03:39:37
(UTC-07:00)
Language:

Cosmos 676 Rocket - Orbit

View from above orbital plane
View from above orbital plane
View from above satellite
View from above satellite

Ground track
Ground track

The orbit data is extracted from the following two-line orbital elements,

1 07434U 74071B   16175.38713283 -.00000048  00000-0 -73607-5 0  9994
2 07434  74.0448 152.9166 0020276 155.4325 204.7798 14.36574745185185
Epoch (UTC): 23 June 2016 09:17:28
Eccentricity: 0.0020276
inclination: 74.0448°
perigee height: 755 km
apogee height: 784 km
right ascension of ascending node: 152.9166°
argument of perigee: 155.4325°
revolutions per day: 14.36574745
mean anomaly at epoch: 204.7798°
orbit number at epoch: 18518

The dashed part of the orbit path shows where the satellite is in the earth's shadow,  

DLR